Location: Carrer del Canonge
(41.4901°N, 2.2931°E)
Time: 04:49:12
(UTC+00:00)

Cosmos 1782 Rocket - Pass Details

Date: 18 September 2020
Orbit: 607 x 632 km, 82.5° (Epoch: 25 October)

Event Time Altitude Azimuth Distance (km) Brightness Sun altitude
Rises 18:40:31 0° 185° (S) 2,875 6.9 -9.4°
Reaches altitude 10° 18:42:43 10° 184° (S) 1,978 6.1 -9.8°
Maximum altitude 18:47:06 85° 99° (E) 632 3.5 -10.6°
Drops below altitude 10° 18:51:34 10° 9° (N) 2,010 6.2 -11.4°
Sets 18:53:49 0° 9° (N) 2,925 7.1 -11.9°
